Location: Molveno
(46.1500°N, 10.9667°E)
Time: 07:56:34
(UTC+00:00)

MTI - Pass Details

Date: 05 July 2020
Orbit: 393 x 405 km, 97.5° (Epoch: 06 August)

Event Time Altitude Azimuth Distance (km) Brightness Sun altitude
Rises 21:45:48 0° 7° (N) 2,315 8.6 -17.9°
Reaches altitude 10° 21:47:49 10° 2° (N) 1,449 7.5 -18.0°
Maximum altitude 21:50:49 50° 287° (WNW) 516 4.4 -18.2°
Enters shadow 21:51:46 34° 234° (SW) 668 4.6 -18.3°
